Weather History for KADM - May, 2013

Change the Weather History Date:

Saturday, May 25, 2013

  Actual Average Record
Temperature  
Mean Temperature 69 °F -  
Max Temperature 84 °F 82 °F 93 °F (2006)
Min Temperature 65 °F 63 °F 48 °F (2002)
Cooling Degree Days 4    
Growing Degree Days 19 (Base 50)    
Moisture  
Dew Point 63 °F    
Average Humidity 87    
Maximum Humidity 89    
Minimum Humidity 78    
Precipitation  
Precipitation 0.03 in - - ()
Sea Level Pressure  
Sea Level Pressure 30.14 in    
Wind  
Wind Speed 5 mph (ESE)    
Max Wind Speed 13 mph    
Max Gust Speed 22 mph    
Visibility 10 miles    
Events Rain    
Averages and records for this station are not official NWS values.
T = Trace of Precipitation, MM = Missing Value Source: NWS Daily Summary

Daily Weather History Graph

Daily Weather History Graph

Search for Another Location

Airport or City:

Trip Planner

Search our weather history database for the weather conditions in past years. The results will help you decide how hot, cold, wet, or windy it might be!

Date:

Astronomy

May. 25, 2013 Rise Set
Actual Time 6:19 AM CDT 8:30 PM CDT
Civil Twilight 5:51 AM CDT 8:59 PM CDT
Nautical Twilight 5:16 AM CDT 9:34 PM CDT
Astronomical Twilight 4:38 AM CDT 10:11 PM CDT
Moon 9:20 PM CDT (5/25) 6:47 AM CDT (5/25)
Length of Visible Light 15h 07m
Length of Day
14h 10m
Full, 100% of the Moon is Illuminated
May 25
Full
May 31
Last Quarter
Jun 8
New
Jun 16
First Quarter
Jun 23
Full

Hourly Weather History & Observations

Time (CDT) Temp. Dew Point Humidity Pressure Visibility Wind Dir Wind Speed Gust Speed Precip Events Conditions
12:15 AM 68.9 °F 64.4 °F 86% 30.17 in 10.0 mi SE 5.8 mph - N/A   Mostly Cloudy
12:35 AM 68.9 °F 64.4 °F 86% 30.18 in 10.0 mi SSE 8.1 mph - N/A   Overcast
12:55 AM 68.4 °F 63.3 °F 84% 30.19 in 10.0 mi South 12.7 mph 21.9 mph N/A Rain Rain
1:15 AM 67.1 °F 62.4 °F 85% 30.17 in 5.0 mi SSW 6.9 mph - 0.03 in Rain Rain
1:35 AM 66.6 °F 62.6 °F 87% 30.15 in 10.0 mi West 4.6 mph - 0.03 in   Scattered Clouds
1:55 AM 66.2 °F 62.2 °F 87% 30.14 in 10.0 mi Calm Calm - 0.03 in   Scattered Clouds
2:15 AM 65.8 °F 62.1 °F 88% 30.12 in 10.0 mi Calm Calm - N/A   Clear
2:35 AM 65.7 °F 62.1 °F 88% 30.11 in 10.0 mi Calm Calm - N/A   Clear
2:55 AM 65.3 °F 61.7 °F 88% 30.12 in 10.0 mi East 4.6 mph - N/A   Clear
3:15 AM 65.3 °F 61.9 °F 89% 30.13 in 10.0 mi East 5.8 mph - N/A   Clear
3:35 AM 65.3 °F 61.9 °F 89% 30.13 in 10.0 mi East 5.8 mph - N/A   Clear
3:55 AM 65.3 °F 61.7 °F 88% 30.14 in 10.0 mi East 9.2 mph - N/A   Clear
4:15 AM 65.3 °F 61.7 °F 88% 30.13 in 10.0 mi ENE 5.8 mph - N/A   Clear
4:35 AM 65.3 °F 61.7 °F 88% 30.13 in 10.0 mi ESE 5.8 mph - N/A   Clear
4:55 AM 65.7 °F 61.9 °F 88% 30.13 in 10.0 mi ESE 4.6 mph - N/A   Clear
5:15 AM 65.7 °F 62.1 °F 88% 30.13 in 10.0 mi ESE 6.9 mph - N/A   Clear
5:35 AM 65.8 °F 62.2 °F 88% 30.13 in 10.0 mi SE 5.8 mph - N/A   Clear
5:55 AM 66.0 °F 62.6 °F 89% 30.12 in 10.0 mi SE 4.6 mph - N/A   Clear
6:15 AM 65.8 °F 62.6 °F 89% 30.12 in 10.0 mi SSE 3.5 mph - N/A   Clear
6:35 AM 65.8 °F 62.4 °F 89% 30.12 in 10.0 mi East 4.6 mph - N/A   Clear
6:55 AM 66.2 °F 62.6 °F 88% 30.12 in 10.0 mi Calm Calm - N/A   Clear
7:13 AM 66.2 °F 62.6 °F 88% 30.13 in 10.0 mi Calm Calm - N/A   Mostly Cloudy
7:55 AM 68.0 °F 64.4 °F 88% 30.16 in 10.0 mi ESE 9.2 mph - N/A   Overcast
9:55 AM 69.8 °F 64.4 °F 83% 30.18 in 10.0 mi ESE 8.1 mph - N/A   Mostly Cloudy
10:55 AM 73.4 °F 66.2 °F 78% 30.17 in 10.0 mi ESE 8.1 mph - N/A   Mostly Cloudy
11:35 PM 67.3 °F 63.5 °F 88% 30.07 in 10.0 mi Calm Calm - N/A   Clear
11:55 PM 67.3 °F 63.5 °F 88% 30.07 in 10.0 mi SE 3.5 mph - N/A   Clear